Flag for U.S.A. Weather past 2 weeks in Wichita, Kansas, U.S.A.

Now
86 °F

Scattered clouds.


Feels Like: 91 °F
Forecast: 73 / 80 °F
Wind: 10 mph from Southeast

Location: Wichita Mid-Continent Airport

Current Time: Aug 3, 2015 at 8:58:19 PM

Latest Report: Aug 3, 2015 at 7:53 PM


Visibility: 10 mi

Pressure: 29.85 "Hg

Humidity: 59%

Dew point: 70 °F

Location of WichitaLocation

Historic Weather in Wichita — Graph

°F

Wichita temperature yesterday

Maximum temperature yesterday: 90 °F (at 2:53 PM)
Minimum temperature yesterday: 71 °F (at 5:53 AM)
Average temperature yesterday: 81 °F

Past Weeks' High & Low Weather Summary

 TemperatureHumidityPressure
High100 °F (Jul 24, 2:53 PM)94% (Aug 1, 5:53 AM)30.23 "Hg (Aug 1, 5:53 AM)
Low70 °F (Jul 22, 4:53 AM)29% (Jul 27, 5:53 PM)29.77 "Hg (Jul 26, 4:53 AM)
Average83 °F67%29.91 "Hg
* Reported Jul 19 6:53 PM — Aug 3 6:53 PM, Wichita, Weather by CustomWeather, © 2015

Note: Actual official high and low records may vary slightly from our data, if they occured in-between our weather recording intervals... More about our weather records

Advertising

Wichita weather history for previous 24 hours

 ConditionsComfort  
Time TempWeatherWind HumidityBarometerVisibility
6:53 PM
Mon, Aug 3
89 °FScattered clouds.12 mph55%29.85 "Hg10 mi
5:53 PM91 °FBroken clouds.12 mph49%29.85 "Hg10 mi
4:53 PM92 °FBroken clouds.13 mph51%29.86 "Hg10 mi
3:53 PM91 °FBroken clouds.7 mph49%29.88 "Hg10 mi
2:53 PM91 °FPartly sunny.8 mph50%29.89 "Hg10 mi
1:53 PM90 °FPartly sunny.8 mph52%29.88 "Hg10 mi
12:53 PM89 °FBroken clouds.10 mph53%29.88 "Hg10 mi
11:53 AM87 °FPartly sunny.10 mph59%29.89 "Hg10 mi
10:53 AM84 °FMostly cloudy.15 mph61%29.90 "Hg10 mi
9:53 AM81 °FPartly sunny.13 mph67%29.90 "Hg10 mi
8:53 AM78 °FPartly sunny.13 mph71%29.90 "Hg10 mi
7:53 AM74 °FBroken clouds.10 mph79%29.90 "Hg10 mi
6:53 AM72 °FPassing clouds.7 mph84%29.89 "Hg10 mi
5:53 AM71 °FPassing clouds.5 mph84%29.87 "Hg10 mi
4:53 AM71 °FPassing clouds.6 mph84%29.86 "Hg10 mi
3:53 AM71 °FPassing clouds.6 mph84%29.86 "Hg10 mi
2:53 AM73 °FPassing clouds.5 mph79%29.85 "Hg10 mi
1:53 AM73 °FPassing clouds.6 mph79%29.87 "Hg10 mi
12:53 AM73 °FPassing clouds.6 mph81%29.88 "Hg10 mi
11:53 PM
Sun, Aug 2
75 °FPassing clouds.8 mph79%29.86 "Hg10 mi
10:53 PM77 °FPassing clouds.6 mph74%29.86 "Hg10 mi
9:53 PM79 °FPassing clouds.7 mph69%29.86 "Hg10 mi
8:53 PM81 °FScattered clouds.7 mph67%29.83 "Hg10 mi
Weather by CustomWeather, © 2015

See weather overviewHow to use our weather pages